Back to catalog

STARLINK-30359

AliveCommunicationsVLEO
NORAD 57779·PAYLOAD·🇺🇸 United States

Launched Sep 4, 2023 from Cape Canaveral Space Force Station

Loading…

Next Passes (next 24 hours)

TLE

FreshSource: CelesTrak SupGP

Epoch: Sep 14, 2026, 14:07 UTC

1 57779C 23134J   26257.58868056 -.00011930  00000+0 -43221-3 0  2573
2 57779  43.0032 196.4253 0001446 265.4035 260.0941 15.27577164    17

Track STARLINK-30359 in real time with AllMySat

Download on the App Store